Location: Cardiff
(53.7833°N, 113.6000°W)
Time: 21:39:59
(UTC+00:00)

Oscar 19 - Pass Details

Date: 05 December 2023
Orbit: 771 x 789 km, 98.9° (Epoch: 04 March)

Event Time Altitude Azimuth Distance (km) Brightness Sun altitude
Rises 23:54:58 0° 188° (S) 3,235 14.5 -5.6°
Reaches altitude 10° 23:57:26 10° 197° (SSW) 2,313 13.9 -5.9°
Maximum altitude 00:02:07 36° 263° (W) 1,208 12.4 -6.5°
Drops below altitude 10° 00:06:51 10° 330° (NNW) 2,332 13.1 -7.1°
Sets 00:09:21 0° 339° (NNW) 3,266 13.8 -7.5°
